{"data":{"norad_id":65352,"intl_designator":"2025-190B","name":"STARLINK-34716","alt_names":[],"object_type":"PAYLOAD","status":"ACTIVE","operator":null,"country":"US","launch_date":"2025-08-28","launch_site_code":"AFETR","launch_vehicle":null,"mission":null,"orbit_class":"UNKNOWN","rcs_meters":null,"size_class":null,"mass_kg":null,"dimensions":null,"purposes":["comms"],"wikipedia_slug":null,"has_3d_model":false,"image_url":null,"decayed_at":null,"tle_current":{"epoch":"2026-05-24T10:41:44.291328Z","epoch_age_seconds":122654,"freshness":"FRESH","line1":"1 65352U 25190B   26144.44565152  .00007623  00000+0  26920-3 0  9996","line2":"2 65352  53.1568 176.3118 0000881  82.6520 277.4581 15.30205266 41355","mean_motion":15.30205266,"eccentricity":8.81e-5,"inclination_deg":53.1568,"raan_deg":176.3118,"arg_perigee_deg":82.652,"mean_anomaly_deg":277.4581,"bstar":0.0002692,"rev_number":4135,"period_min":94.105021855284,"perigee_km":474.59556720552,"apogee_km":475.80312506971,"semimajor_km":6853.3363461376,"source":"CELESTRAK","updated_at":"2026-05-25T13:38:20.764738Z"}}}